Location: Killarney Provincial Park Observatory
(46.0124°N, 81.4000°W)
Time: 14:24:18
(UTC-04:00)

Iridium 22 - Visible Passes

Search period start: 02 August 2015 00:00
Search period end: 12 August 2015 00:00
Orbit: 776 x 779 km, 86.4° (Epoch: 02 August)

Date Brightness Start Highest point End Pass type
(mag) Time Alt. Az. Time Alt. Az. Time Alt. Az.
02 Aug 8.0 03:08:02 10° NNE 03:11:19 17° ENE 03:14:47 10° ESE visible
02 Aug 5.5 04:47:29 10° N 04:52:41 67° W 04:57:50 10° S visible
03 Aug 5.8 04:13:55 10° N 04:19:09 71° E 04:24:21 10° S visible
04 Aug 6.7 03:40:35 10° N 03:45:29 40° E 03:50:23 10° SSE visible
04 Aug 6.6 05:21:42 10° NNW 05:26:04 27° W 05:30:21 10° SW visible
05 Aug 7.6 03:07:34 10° NNE 03:11:40 23° ENE 03:15:52 10° SE visible
05 Aug 5.9 04:47:42 10° NNW 04:52:43 47° W 04:57:12 12° SSW visible
06 Aug 8.1 02:35:12 10° NE 02:37:41 14° ENE 02:40:26 10° E visible
06 Aug 5.5 04:14:01 10° N 04:19:16 83° W 04:23:16 17° S visible
07 Aug 6.1 03:40:32 10° N 03:45:41 56° E 03:49:21 19° SSE visible
07 Aug 7.0 05:22:16 10° NNW 05:26:01 20° W 05:29:37 10° WSW visible
08 Aug 7.0 03:07:19 10° NNE 03:11:57 32° ENE 03:15:28 16° SE visible
08 Aug 6.3 04:48:03 10° NNW 04:52:43 34° W 04:55:54 18° SW visible
09 Aug 7.8 02:34:28 10° NNE 02:38:05 19° ENE 02:41:37 11° ESE visible
09 Aug 5.6 04:14:11 10° N 04:19:20 59° W 04:22:03 27° SSW visible
10 Aug 8.2 02:02:53 10° NE 02:04:02 11° ENE 02:05:30 10° E visible
10 Aug 5.5 03:40:34 10° N 03:45:50 79° E 03:48:13 33° S visible
10 Aug 7.3 05:23:11 10° NW 05:25:56 14° WNW 05:28:26 10° WSW visible
11 Aug 6.4 03:07:11 10° N 03:12:11 45° E 03:14:23 29° SE visible
11 Aug 6.7 04:48:29 10° NNW 04:52:42 24° W 04:54:50 18° WSW visible
